Terminal Aerodrome Forecast
Issued by NWS Blacksburg, VA

Current Version | Previous Version | Text Only | Print | Product List | Glossary On
Versions: 1 2 3 4 5 6 7 8 9 10 11 12 13 14 15 16 17 18 19 20 21 22 23 24 25 26 27 28 29 30 31 32 33 34 35 36 37 38 39 40 41 42 43 44 45
000
FTUS41 KRNK 262341
TAFDAN
TAF
KDAN 262341Z 2700/2724 20008G15KT P6SM OVC250
     FM270400 27008G18KT P6SM VCSH OVC040
     FM270700 35012G24KT 4SM -SHRA OVC012
     FM271500 01004KT P6SM -RA OVC020
     FM272000 07003KT P6SM OVC025=

USA.gov is the U.S. government's official web portal to all federal, state and local government web resources and services.